sat.trackr.live / text

‹ back to catalog

STARLINK-5336

NORAD 57138 · 2023-090AP

PAYLOAD ACTIVE UNKNOWN

§ Identity

Operator
Country
US
Launch date
2023-06-23
Launch site
AFETR
Launch vehicle
Mass (kg)
RCS (m²)

Purposes: comms

External: N2YO · Heavens-Above · Gunter

§ Orbital elements

Epoch: 2026-09-20T15:50:56.433696Z

Period
94.27 min
Inclination
43.0049°
Eccentricity
0.0000834
Mean motion
15.27578474 rev/d
Perigee alt
482.5 km
Apogee alt
483.6 km
Semi-major
6,861.2 km
B*
4.2377e-5
RAAN
242.0822°
Arg perigee
296.9406°
Mean anomaly
63.1361°
Rev number
18,017

§ Raw data

STARLINK-53361 57138U 23090AP  26263.66037539  .00000904  00000+0  42377-4 0  99952 57138  43.0049 242.0822 0000834 296.9406  63.1361 15.27578474180174

JSON: /api/v1/satellites/57138 · /tle

For live sub-satellite position, see the globe view (requires WebGL).

§ Visibility from observer

Set your observer location to see the next 7 days of passes ≥ 10°. The values pass through the URL so the page stays shareable.

No JS? Fill the form by hand. The geolocation button needs JavaScript.